User: anonymous   Login
Location: Lecco
(45.8566°N, 9.3977°E)
Time: 03:31:55
(UTC+02:00)
Language:

Vanguard 1 Rocket - Orbit

View from above orbital plane
View from above orbital plane
View from above satellite
View from above satellite

Ground track
Ground track

The orbit data is extracted from the following two-line orbital elements,

1    16U 58002A   19230.58278830 -.00000054 +00000-0 -49697-4 0  9998
2    16 034.2636 312.0686 2026228 036.5127 335.7882 10.48746033426931
Epoch (UTC): 18 August 2019 13:59:12
Eccentricity: 0.2026228
inclination: 34.2636°
perigee height: 652 km
apogee height: 4224 km
right ascension of ascending node: 312.0686°
argument of perigee: 36.5127°
revolutions per day: 10.48746033
mean anomaly at epoch: 335.7882°
orbit number at epoch: 42693

The dashed part of the orbit path shows where the satellite is in the earth's shadow,  

DLR